Flag for U.S.A. Weather past 2 weeks in Clearwater, Florida, U.S.A.

Now
88 °F

Sunny.


Feels Like: 92 °F
Forecast: 76 / 89 °F
Wind: 9 mph from Northwest

Location: St. Petersburg / Clearwater International Airport

Current Time: Aug 1, 2014 at 7:04:51 PM

Latest Report: Aug 1, 2014 at 5:53 PM


Visibility: 10 mi

Pressure: 29.93 "Hg

Humidity: 52%

Dew point: 68 °F

Location of ClearwaterLocation

Historic Weather in Clearwater — Graph

°F

Clearwater temperature yesterday

Maximum temperature yesterday: 89 °F (at 1:53 PM)
Minimum temperature yesterday: 77 °F (at 6:53 AM)
Average temperature yesterday: 84 °F

Past Weeks' High & Low Weather Summary

 TemperatureHumidityPressure
High92 °F (Jul 30, 2:53 PM)96% (Jul 23, 6:53 AM)30.11 "Hg (Jul 23, 6:53 AM)
Low74 °F (Jul 18, 5:53 AM)47% (Jul 30, 2:53 PM)29.93 "Hg (Aug 1, 5:53 PM)
Average84 °F73%30.03 "Hg
* Reported Jul 17 5:53 PM — Aug 1 5:53 PM, Clearwater, Weather by CustomWeather, © 2014

Note: Actual official high and low records may vary slightly from our data, if they occured in-between our weather recording intervals... More about our weather records

Advertising

Clearwater weather history for previous 24 hours

 ConditionsComfort  
Time TempWeatherWind HumidityBarometerVisibility
5:53 PM
Aug 1
88 °FSunny.9 mph52%29.93 "Hg10 mi
4:53 PM90 °FSunny.10 mph50%29.95 "Hg10 mi
3:53 PM90 °FSunny.10 mph52%29.96 "Hg10 mi
2:53 PM90 °FBroken clouds.9 mph54%29.98 "Hg10 mi
1:53 PM88 °FPartly sunny.7 mph59%29.98 "Hg10 mi
12:53 PM88 °FPartly sunny.5 mph59%29.99 "Hg10 mi
11:53 AM88 °FPassing clouds.7 mph59%30.00 "Hg10 mi
10:53 AM87 °FPassing clouds.6 mph61%30.00 "Hg10 mi
9:53 AM86 °FScattered clouds.3 mph63%30.00 "Hg10 mi
8:53 AM85 °FSunny.No wind63%29.98 "Hg10 mi
7:53 AM78 °FSunny.No wind84%29.98 "Hg10 mi
6:53 AM75 °FPassing clouds.No wind85%29.97 "Hg10 mi
5:53 AM76 °FClear.No wind82%29.95 "Hg10 mi
4:53 AM76 °FClear.No wind85%29.94 "Hg10 mi
3:53 AM77 °FPassing clouds.No wind79%29.94 "Hg10 mi
2:53 AM78 °FPassing clouds.No wind76%29.95 "Hg10 mi
1:53 AM78 °FOvercast.No wind76%29.97 "Hg10 mi
12:53 AM78 °FPassing clouds.No wind76%29.98 "Hg10 mi
11:53 PM
Jul 31
79 °FClear.No wind72%29.99 "Hg10 mi
10:53 PM81 °FClear.3 mph65%29.99 "Hg10 mi
9:53 PM81 °FClear.6 mph65%29.98 "Hg10 mi
8:53 PM82 °FSunny.7 mph58%29.98 "Hg10 mi
7:53 PM84 °FSunny.8 mph55%29.98 "Hg10 mi
Weather by CustomWeather, © 2014

See weather overviewHow to use our weather pages